Flag for U.S.A. Weather past 2 weeks in Riverside, California, U.S.A.

Now
65 °F

Clear.


Feels Like: 65 °F
Forecast: 60 / 81 °F
Wind: No wind

Location: Riverside Municipal Airport

Current Time: Sep 3, 2015 at 1:59:07 AM

Latest Report: Sep 3, 2015 at 12:53 AM


Visibility: 10 mi

Pressure: 29.90 "Hg

Humidity: 81%

Dew point: 59 °F

Location of RiversideLocation

Historic Weather in Riverside — Graph

°F

Riverside temperature yesterday

Maximum temperature yesterday: 87 °F (at 2:53 PM)
Minimum temperature yesterday: 66 °F (at 12:53 AM)
Average temperature yesterday: 73 °F

Past Weeks' High & Low Weather Summary

 TemperatureHumidityPressure
High104 °F (Aug 28, 2:53 PM)91% (Aug 19, 6:53 AM)29.95 "Hg (Aug 19, 6:53 AM)
Low65 °F (Aug 19, 5:53 AM)13% (Aug 28, 3:53 PM)29.75 "Hg (Aug 28, 3:53 PM)
Average79 °F55%29.86 "Hg
* Reported Aug 19 12:53 AM — Sep 3 12:53 AM, Riverside, Weather by CustomWeather, © 2015

Note: Actual official high and low records may vary slightly from our data, if they occured in-between our weather recording intervals... More about our weather records

Advertising

Riverside weather history for previous 24 hours

 ConditionsComfort  
Time TempWeatherWind HumidityBarometerVisibility
12:53 AM
Thu, Sep 3
65 °FClear.No wind81%29.90 "Hg10 mi
11:53 PM
Wed, Sep 2
66 °FClear.3 mph78%29.90 "Hg10 mi
10:53 PM67 °FClear.3 mph76%29.90 "Hg10 mi
9:53 PM69 °FClear.5 mph70%29.89 "Hg10 mi
8:53 PM71 °FClear.6 mph66%29.87 "Hg10 mi
7:53 PM73 °FSunny.8 mph62%29.84 "Hg10 mi
6:53 PM78 °FSunny.9 mph52%29.82 "Hg10 mi
5:53 PM80 °FSunny.12 mph47%29.82 "Hg10 mi
4:53 PM84 °FPassing clouds.12 mph40%29.83 "Hg10 mi
3:53 PM86 °FPassing clouds.12 mph37%29.83 "Hg10 mi
2:53 PM87 °FPassing clouds.8 mph33%29.84 "Hg10 mi
1:53 PM85 °FScattered clouds.N/A36%29.87 "Hg10 mi
12:53 PM81 °FScattered clouds.7 mph42%29.89 "Hg10 mi
11:53 AM79 °FScattered clouds.7 mph47%29.91 "Hg10 mi
10:53 AM75 °FScattered clouds.6 mph55%29.93 "Hg10 mi
9:53 AM72 °FMild.N/A61%29.94 "HgN/A
8:53 AM70 °FOvercast.3 mph68%29.94 "Hg10 mi
7:53 AM69 °FOvercast.5 mph73%29.94 "Hg10 mi
6:53 AM68 °FOvercast.3 mph76%29.94 "Hg10 mi
5:53 AM68 °FOvercast.No wind76%29.92 "Hg10 mi
4:53 AM67 °FOvercast.No wind79%29.91 "Hg10 mi
3:53 AM67 °FOvercast.No wind79%29.91 "Hg10 mi
2:53 AM67 °FOvercast.3 mph79%29.92 "Hg10 mi
1:53 AM66 °FOvercast.5 mph81%29.93 "Hg10 mi
Weather by CustomWeather, © 2015

See weather overviewHow to use our weather pages